Lapse_Rate
6.9 6.8 6.7 6.7 6.6 6.6 7.9 8.0 7.7 7.7 7.7 7.5 7.5 7.6 7.8 8.1 8.4 8.5 8.4 8.1 8.1 8.2 8.2 8.1 8.0 7.7 7.5 7.1 6.7 6.5 6.3 6.2 6.1 6.0 6.0 5.8 6.0 6.0 6.2 6.3 6.2 6.0 5.7 5.6 6.0 6.0 5.7 5.9 6.0
6.9 6.8 6.6 6.0 7.0 8.0 8.5 7.9 7.7 7.7 7.5 7.3 7.4 7.7 7.7 8.1 8.2 8.1 8.2 8.3 8.2 8.2 8.2 8.2 8.0 7.7 7.4 7.1 6.7 6.6 6.5 6.5 6.5 6.5 6.4 6.3 6.4 6.4 6.5 6.3 6.3 6.3 6.1 5.9 5.8 6.0 6.1 5.8 5.7
6.9 6.8 6.1 6.7 7.4 8.5 9.4 8.0 8.1 7.7 7.6 7.5 7.6 7.8 8.0 8.3 8.2 8.1 8.1 8.2 8.2 8.3 8.4 8.3 7.9 7.7 7.3 7.2 7.0 6.9 6.9 6.9 6.8 6.7 6.7 6.5 6.5 6.5 6.5 6.4 6.3 6.1 6.0 5.8 5.8 5.9 5.9 5.9 5.8
6.8 6.7 6.4 6.8 7.9 8.1 8.2 8.2 7.8 7.9 7.8 7.8 7.8 8.0 8.2 8.4 8.1 8.0 8.0 8.0 8.2 8.3 8.4 8.3 7.9 7.6 7.1 7.0 7.1 7.1 7.3 7.3 7.2 7.0 6.9 6.8 6.7 6.5 6.5 6.2 6.1 6.3 6.3 6.0 5.6 5.5 5.6 5.7 5.5
7.0 6.4 7.0 7.3 7.9 8.1 7.9 7.8 7.8 8.0 7.9 7.9 7.8 8.3 8.2 8.3 8.1 8.2 8.1 8.3 8.2 8.5 8.5 8.5 8.0 7.6 7.2 7.1 7.1 7.3 7.5 7.4 7.3 7.1 6.9 6.9 6.8 6.7 6.4 6.1 6.1 6.0 5.9 5.7 5.8 5.6 5.4 5.4 5.4
6.7 6.9 7.4 8.1 8.3 8.0 8.1 8.0 8.2 8.3 8.2 7.9 7.9 8.1 8.4 8.2 8.3 8.3 8.4 8.4 8.4 8.6 8.7 8.6 7.9 7.7 7.4 7.3 7.2 7.4 7.4 7.4 7.3 7.1 7.0 6.9 6.8 6.7 6.6 6.3 6.2 6.0 6.0 5.8 5.6 5.6 5.5 5.1 5.0
6.9 7.2 7.8 8.3 8.4 8.1 8.4 8.4 8.6 8.6 8.1 8.1 8.0 8.3 8.5 8.3 8.5 8.4 8.3 8.4 8.3 8.5 8.7 8.7 8.4 8.0 8.0 7.7 7.7 7.7 7.6 7.5 7.5 7.3 7.2 7.1 6.9 6.8 6.7 6.4 6.2 6.1 6.0 5.9 5.8 5.7 5.5 5.3 5.1
7.3 7.3 7.8 8.3 8.3 8.4 8.3 8.2 8.4 8.4 8.5 7.8 8.3 8.5 8.5 8.4 8.7 8.6 8.5 8.5 8.6 8.7 8.8 8.8 8.7 8.5 8.2 8.0 8.0 7.9 7.9 7.7 7.6 7.4 7.2 7.1 6.9 6.8 6.7 6.6 6.4 6.2 6.2 6.1 5.9 5.9 5.9 5.7 5.7
7.6 7.3 7.8 8.4 8.4 8.6 8.1 8.3 7.8 8.2 8.1 7.9 8.2 8.4 8.1 8.6 8.7 8.7 8.7 8.7 8.6 8.8 8.9 8.9 8.9 8.7 8.4 8.2 8.0 7.8 7.8 7.8 7.7 7.4 7.3 7.1 6.9 6.7 6.7 6.7 6.5 6.5 6.2 6.1 6.0 6.0 6.1 6.0 5.9
6.9 7.5 7.8 8.1 8.5 8.5 8.6 7.9 8.3 8.1 7.6 8.0 8.6 8.4 8.3 8.8 8.8 8.8 8.8 8.9 8.7 9.1 8.9 8.9 8.7 8.7 8.6 8.5 8.0 7.8 7.9 7.8 7.5 7.3 7.3 7.2 7.0 6.8 6.6 6.6 6.5 6.5 6.6 6.5 6.4 6.3 6.2 6.2 6.0
6.9 7.5 8.2 8.0 8.3 8.2 8.0 7.9 8.4 7.8 7.5 8.5 8.5 8.4 8.4 8.3 9.1 9.0 9.0 8.8 8.8 8.9 9.0 9.0 8.7 8.5 8.6 8.5 8.3 8.2 8.0 7.7 7.6 7.4 7.3 7.2 6.9 6.6 6.6 6.5 6.3 6.2 6.3 6.4 6.4 6.2 6.1 6.0 5.9
7.1 7.5 7.7 8.1 8.2 8.2 7.7 7.8 7.9 7.7 7.2 8.4 8.3 8.3 8.7 8.7 8.9 8.8 8.7 8.7 8.8 8.9 9.0 9.1 8.9 8.5 8.6 8.5 8.5 8.4 8.3 7.9 7.6 7.5 7.4 7.2 7.0 6.6 6.6 6.5 6.1 6.0 6.0 6.1 6.1 6.2 6.0 5.8 5.7
7.3 7.5 7.7 7.5 7.6 7.8 7.9 7.9 8.0 7.4 7.5 8.5 8.4 8.5 8.3 8.4 8.7 9.0 8.5 8.1 8.6 8.9 8.9 9.0 9.0 8.6 8.3 8.4 8.3 8.4 8.3 8.2 7.8 7.6 7.4 7.2 6.8 6.6 6.6 6.3 6.0 5.8 5.8 5.7 5.6 5.4 5.5 5.5 5.5
7.6 7.8 7.6 7.5 7.3 7.7 7.6 7.7 7.6 7.2 7.9 8.3 8.4 8.4 8.5 8.7 8.7 8.2 7.6 7.9 8.4 8.9 8.8 8.8 9.0 8.5 8.5 8.4 8.6 8.5 8.5 8.3 8.0 7.7 7.4 7.0 6.8 6.7 6.6 6.2 5.9 5.6 5.6 5.6 5.7 5.5 5.4 5.5 5.5
7.3 7.2 7.8 7.0 7.5 7.5 7.9 7.3 7.2 7.5 8.0 8.2 7.9 8.3 8.6 8.4 8.2 7.5 7.7 7.5 8.5 8.8 8.7 9.1 9.1 8.7 8.6 8.5 8.4 8.2 8.3 8.1 8.0 7.6 7.3 7.0 6.8 6.7 6.6 6.2 6.0 5.8 5.8 5.8 5.6 5.6 5.5 5.5 5.5
6.8 7.1 7.3 7.6 7.3 7.3 7.5 6.8 7.8 8.0 8.0 8.0 8.1 8.6 8.3 8.1 7.9 7.8 7.7 7.9 8.3 8.4 9.0 8.9 9.0 8.8 9.1 8.7 8.3 8.2 8.1 8.0 7.7 7.5 7.1 7.0 6.8 6.7 6.4 6.1 6.1 5.9 5.9 5.8 5.7 5.7 5.7 5.8 5.8
6.7 6.5 6.8 7.9 8.6 8.0 7.5 6.9 7.9 8.1 7.7 7.7 8.2 8.4 7.9 8.2 8.2 8.0 7.7 8.0 8.3 8.6 8.8 8.9 9.1 9.1 9.1 8.7 8.7 8.2 8.0 7.9 7.6 7.3 7.0 6.8 6.7 6.6 6.3 6.2 6.1 5.9 5.8 5.8 5.7 5.8 5.9 5.9 5.9
6.6 6.9 7.1 8.0 9.0 7.4 7.4 7.1 8.0 8.0 7.5 7.8 8.0 7.9 7.9 7.9 8.3 8.0 8.0 8.3 8.5 8.8 8.7 8.9 8.9 9.1 9.1 9.0 8.9 8.0 7.9 7.8 7.5 7.1 6.9 6.8 6.4 6.4 6.3 6.1 5.9 5.9 5.8 5.8 5.7 6.0 5.9 5.8 5.9
7.1 7.8 7.8 7.5 8.2 8.2 7.6 7.5 8.0 8.3 7.4 8.0 8.2 7.9 7.9 8.0 8.1 8.1 8.4 8.6 8.7 8.8 8.8 8.6 8.8 9.3 9.3 8.8 8.3 7.9 7.8 7.5 7.2 7.0 6.8 6.5 6.3 6.3 6.2 6.0 5.9 5.9 5.8 5.8 6.0 6.0 5.9 5.9 6.0
6.9 7.3 7.7 8.2 8.4 8.0 7.7 7.8 8.1 8.3 7.8 7.6 7.9 8.0 8.2 8.1 8.1 8.2 8.4 8.5 8.8 8.7 8.6 8.7 8.8 8.9 8.6 8.2 8.0 7.8 7.5 7.2 7.0 6.8 6.6 6.3 6.2 6.2 6.0 5.9 5.9 5.8 5.8 5.9 6.1 6.1 6.2 6.2 6.2
6.4 6.7 7.5 7.8 8.4 8.3 8.0 7.4 7.0 7.6 7.8 7.6 7.7 8.1 7.9 7.9 8.2 8.4 8.6 8.8 8.7 8.6 8.5 8.6 8.5 8.3 8.0 8.0 7.8 7.5 7.2 6.9 6.8 6.6 6.2 6.1 6.1 6.1 6.0 5.9 6.1 5.9 6.0 6.1 6.2 6.3 6.3 6.3 6.3
6.7 6.8 7.3 7.8 8.1 7.6 8.4 7.9 7.2 7.5 7.4 7.6 7.7 7.9 7.9 7.9 8.4 8.4 8.7 8.6 8.6 8.6 8.6 8.5 8.1 7.9 7.9 7.8 7.4 7.1 6.8 6.7 6.6 6.2 6.0 6.0 6.0 5.9 6.0 6.2 6.1 6.0 6.1 6.3 6.2 6.4 6.3 6.4 6.4
6.1 7.4 7.4 7.4 7.3 7.6 7.3 7.3 6.7 7.4 6.9 7.7 8.2 7.8 7.9 8.2 8.4 8.5 8.5 8.4 8.6 8.6 8.5 8.1 7.8 7.7 7.6 7.2 6.9 6.8 6.6 6.6 6.3 6.1 6.0 6.0 5.8 5.7 5.8 5.9 6.0 6.1 6.2 6.2 6.2 6.3 6.2 6.2 6.2
7.0 7.1 7.1 7.1 7.2 7.4 6.7 7.2 6.8 6.7 7.8 8.0 8.1 8.0 8.0 8.4 8.4 8.6 8.5 8.5 8.6 8.6 8.2 7.7 7.6 7.5 7.2 6.8 6.8 6.6 6.5 6.2 6.1 6.1 6.0 6.0 5.9 6.0 5.9 6.0 6.1 6.2 6.2 6.2 6.3 6.3 6.3 6.4 6.3
6.8 6.9 7.7 7.4 7.5 7.1 7.0 7.1 6.6 7.1 7.7 7.7 8.1 8.0 8.0 8.2 8.6 8.5 8.5 8.5 8.4 8.3 7.8 7.6 7.5 7.2 6.9 6.8 6.7 6.5 6.3 6.2 6.0 6.0 6.1 5.9 5.9 5.9 6.1 6.1 6.1 6.2 6.0 6.1 6.2 6.2 6.1 6.1 6.1
6.1 6.6 7.6 7.3 7.6 8.1 7.4 6.9 6.8 7.3 7.5 7.7 7.6 7.4 7.8 8.4 8.6 8.5 8.3 8.4 8.3 7.9 7.7 7.4 7.3 7.0 6.8 6.8 6.6 6.4 6.3 6.1 6.0 5.9 5.9 5.6 5.7 6.0 6.2 6.2 6.1 6.1 6.2 6.1 6.2 6.1 6.0 5.9 6.1
6.4 6.5 7.5 8.4 8.3 8.8 9.2 7.4 7.1 7.2 8.2 7.6 7.5 7.5 8.1 8.6 8.6 8.5 8.4 8.4 8.0 7.7 7.5 7.4 7.0 6.9 6.9 6.8 6.6 6.6 6.3 6.1 5.9 5.9 5.8 5.6 5.7 6.1 6.2 6.2 6.1 6.2 6.2 6.2 6.2 6.1 5.9 5.7 5.6
6.9 7.1 7.2 7.3 7.9 8.4 8.9 8.4 7.6 8.0 8.1 7.6 7.7 8.0 8.4 8.7 8.7 8.6 8.3 8.0 7.8 7.5 7.4 7.3 7.0 7.0 6.9 6.9 6.8 6.6 6.1 5.9 5.9 5.9 5.8 5.8 5.8 6.2 6.2 6.1 6.0 6.0 6.2 6.4 6.1 5.9 5.8 5.8 5.5
7.0 6.7 7.2 7.6 8.0 8.9 9.1 8.5 7.9 7.7 8.2 7.9 8.1 8.3 8.6 8.6 8.6 8.5 8.3 7.8 7.6 7.5 7.3 7.2 6.9 7.0 6.9 6.9 6.8 6.4 6.0 5.9 5.9 5.8 5.8 5.7 6.0 6.1 6.1 5.9 6.0 6.0 6.1 6.2 6.0 5.9 5.8 6.0 6.0
7.5 7.1 6.9 7.2 7.4 8.5 9.6 8.4 7.9 7.7 7.6 7.8 8.2 8.5 8.7 8.6 8.6 8.5 8.2 7.7 7.5 7.4 7.3 7.1 7.0 7.0 6.9 6.7 6.7 6.3 6.0 5.9 5.8 5.8 5.8 5.9 6.1 6.0 6.0 5.9 5.9 6.1 6.0 6.0 5.8 5.8 5.8 5.8 6.0
Wind_Speed
13 13 6 5 5 5 11 7 3 6 7 1 4 5 6 10 8 6 4 11 9 19 22 27 26 26 24 21 20 20 19 17 16 14 13 11 10 9 8 7 6 5 5 5 4 4 4 4 5
13 9 5 3 7 9 9 4 9 2 4 7 6 10 9 11 6 4 6 14 12 18 21 26 26 25 24 22 20 19 18 17 16 14 13 12 11 11 10 10 9 9 9 9 8 8 7 6 5
12 8 6 5 8 10 2 10 5 2 2 2 4 4 1 3 2 2 5 17 14 17 21 24 29 26 24 22 20 18 17 16 16 15 13 13 12 12 12 12 12 12 12 12 13 11 10 9 7
8 6 5 9 11 6 7 6 3 5 5 2 3 6 4 4 1 0 6 16 14 17 20 22 27 25 23 22 20 19 18 17 17 15 14 14 13 13 14 14 14 14 14 15 14 14 14 12 10
7 5 9 11 13 8 7 9 7 9 4 5 1 4 3 4 2 1 7 14 14 15 19 20 24 25 24 23 21 20 19 17 16 16 15 15 15 15 15 14 14 15 17 18 16 16 14 14 11
8 5 10 12 14 8 8 9 9 12 8 4 4 6 2 5 4 2 6 13 13 14 16 18 23 24 23 23 22 21 20 19 17 16 16 15 15 15 16 15 14 14 14 15 15 17 14 14 11
15 9 14 15 12 10 12 6 10 6 6 5 5 9 3 3 9 4 5 10 12 11 14 15 19 24 21 21 21 20 19 18 17 17 16 15 15 14 12 12 12 11 12 14 15 15 15 13 12
10 9 18 13 13 12 1 7 1 4 3 2 4 7 7 10 8 5 6 9 14 13 14 15 15 22 23 21 17 18 17 16 16 15 15 14 15 14 13 10 13 12 10 12 13 14 15 15 15
13 10 14 19 15 12 6 10 5 3 10 12 9 12 11 11 9 8 7 10 12 14 16 16 16 16 20 21 20 18 17 15 14 15 15 14 16 14 14 13 6 8 10 12 13 14 14 15 16
15 15 22 21 14 16 15 10 11 9 13 17 17 15 11 12 12 13 13 12 14 18 17 16 16 15 15 15 17 18 18 17 16 15 13 12 14 12 10 10 6 10 12 13 14 14 14 14 15
21 25 21 23 19 19 19 20 17 17 15 21 19 18 17 17 17 17 17 17 16 15 17 18 15 14 15 13 11 11 13 12 11 12 11 12 11 11 11 11 11 12 12 11 12 10 13 13 8
29 25 23 25 25 19 19 23 21 19 19 23 21 19 21 23 21 19 19 19 16 14 18 18 17 15 15 9 10 9 8 8 6 10 11 10 6 7 7 6 9 8 11 8 9 8 7 9 12
30 25 25 22 25 23 21 23 28 25 21 24 20 20 21 21 24 23 23 18 16 15 15 18 17 16 14 13 10 9 9 8 8 8 10 11 7 7 7 7 8 9 12 9 7 7 7 8 9
25 27 29 27 25 22 23 26 25 22 23 23 21 21 21 21 22 21 19 18 15 13 14 16 18 18 17 14 13 10 8 8 7 8 8 9 9 7 8 7 9 9 12 12 8 6 6 7 8
25 25 23 22 22 25 21 26 26 21 23 22 18 19 20 20 20 18 17 17 15 11 12 17 18 19 17 16 12 9 8 7 7 6 8 10 10 10 10 9 8 8 11 11 9 8 7 8 7
21 25 24 25 22 22 18 28 23 18 20 18 17 18 20 22 21 18 20 19 13 11 13 15 16 20 19 15 12 9 7 7 7 6 8 10 12 14 9 8 7 8 10 7 9 9 6 8 5
25 26 32 25 21 18 21 32 23 17 17 15 17 20 21 21 21 17 17 15 12 10 12 16 18 19 18 13 11 9 8 7 6 6 7 10 12 14 9 7 6 10 8 7 8 9 6 6 5
25 26 27 28 21 15 24 30 21 20 19 21 18 22 19 21 23 16 13 12 6 7 12 14 14 16 15 12 9 8 7 7 6 6 7 9 10 12 8 7 8 6 6 7 8 6 7 5 5
26 30 30 23 22 21 27 29 23 19 18 23 21 21 22 21 18 11 7 4 4 7 11 13 14 15 13 11 10 8 8 6 5 5 6 9 10 9 7 6 7 7 7 9 7 6 8 5 6
29 29 30 24 23 23 24 29 26 24 22 24 22 23 20 20 15 9 3 4 7 10 12 14 15 16 12 9 6 5 5 4 4 3 4 7 8 8 7 8 7 8 5 8 8 9 5 4 8
31 30 25 27 20 22 24 29 31 26 26 23 18 18 23 21 16 5 5 6 9 11 13 15 16 15 11 10 7 5 4 4 5 5 5 5 6 7 7 7 6 8 8 6 8 8 9 7 8
31 25 25 25 21 23 22 23 28 22 22 23 23 20 20 15 8 5 7 9 10 12 14 16 15 13 10 9 7 5 3 4 0 3 2 5 7 6 5 6 9 9 5 7 7 7 7 7 8
33 22 23 24 23 25 28 19 23 19 21 25 20 19 18 9 6 9 9 11 13 15 16 15 14 12 11 8 6 6 4 3 3 2 3 6 4 3 5 7 9 7 5 7 7 7 7 6 5
22 17 18 18 17 21 24 21 24 24 27 25 22 15 15 8 7 9 11 14 15 16 15 14 14 12 11 9 7 4 4 3 3 3 4 4 1 4 6 6 6 7 6 6 6 7 7 5 4
27 21 11 13 14 17 19 19 21 24 17 25 18 9 9 9 10 13 16 16 17 17 16 14 13 12 11 9 7 5 4 3 4 5 2 2 3 4 6 5 5 5 5 6 6 7 6 5 6
30 27 14 19 15 15 20 11 14 10 22 25 22 12 9 11 12 15 17 17 18 17 16 14 13 12 11 9 6 5 4 3 4 2 2 1 3 5 6 5 6 5 6 6 6 5 5 6 5
29 24 24 11 10 7 13 14 16 17 21 16 15 16 13 10 13 16 18 17 17 16 15 13 12 11 10 9 6 5 4 3 2 1 1 2 5 5 6 6 5 6 6 6 7 4 5 5 6
28 23 21 15 18 16 12 10 8 8 11 13 13 14 13 13 15 17 17 17 15 15 13 12 11 11 10 9 6 5 4 2 1 2 2 4 4 6 7 6 5 6 6 6 7 5 5 6 6
18 23 19 18 13 14 7 8 9 17 10 12 12 13 14 16 17 18 17 16 16 15 14 12 11 11 10 8 6 5 3 2 1 1 2 4 6 8 7 6 5 6 6 7 5 5 6 7 5
27 21 26 13 20 11 6 4 2 7 2 10 7 10 15 17 18 18 18 17 16 15 14 12 11 11 10 7 6 5 3 2 1 3 3 4 6 8 8 7 6 5 5 5 5 5 6 7 6
Wind_Direction
155 175 180 208 226 236 234 187 38 173 195 272 293 245 260 312 310 341 114 163 164 161 167 176 177 179 182 183 184 184 185 185 186 189 193 198 201 206 213 221 242 259 267 271 258 255 253 240 249
161 169 212 227 252 225 195 155 192 169 334 296 255 249 250 269 269 275 193 176 168 161 171 182 183 184 184 186 188 188 190 190 192 197 202 208 214 221 228 233 239 254 270 271 267 262 246 246 245
175 217 246 231 238 253 229 185 134 153 310 240 221 263 304 250 227 303 67 160 165 170 176 186 179 189 186 188 190 193 194 196 199 207 215 222 228 235 243 244 245 248 258 264 272 268 263 249 237
183 199 234 245 233 235 258 174 194 256 186 226 317 250 188 298 339 286 139 164 170 178 182 182 179 189 189 189 192 195 199 202 208 213 221 229 235 239 243 248 254 254 253 255 259 267 270 255 262
216 246 246 239 246 247 227 263 288 261 256 272 308 243 267 102 276 260 175 183 183 182 188 186 181 189 191 190 192 196 200 206 212 216 225 234 239 242 248 252 256 261 262 259 254 259 267 262 257
206 266 239 238 237 234 245 253 257 256 238 235 231 269 264 72 14 334 213 203 200 186 190 194 184 193 193 193 193 196 199 204 211 218 227 235 243 249 248 251 262 267 274 273 271 263 262 268 271
246 217 251 264 273 251 254 236 221 236 209 201 330 266 300 80 15 346 225 215 216 202 200 198 189 197 197 196 196 199 203 206 211 219 228 236 248 254 253 258 265 271 275 276 276 274 272 270 262
238 256 255 248 259 267 162 219 313 238 287 348 268 260 251 1 360 339 256 234 211 209 206 206 203 194 202 201 202 202 206 208 215 223 232 239 250 252 248 249 241 247 271 276 276 274 270 269 261
227 235 246 245 247 246 168 250 157 301 275 286 259 270 286 321 312 307 283 267 232 219 210 209 205 202 201 202 195 201 213 214 221 230 233 243 250 255 235 236 273 278 273 274 277 270 267 266 260
218 227 241 253 263 261 270 259 280 278 278 280 274 243 242 262 282 283 278 264 243 236 220 213 217 210 202 202 201 202 210 220 226 235 245 239 251 260 279 295 275 264 270 272 268 264 265 260 255
229 246 241 245 250 263 288 279 277 274 267 268 290 308 293 286 281 278 271 272 276 242 224 215 205 207 208 197 193 201 205 213 227 242 245 248 262 255 251 256 252 244 227 257 242 238 236 244 239
242 249 244 261 261 256 262 275 278 267 272 277 291 294 292 291 287 280 272 266 270 252 231 212 205 205 204 201 194 198 202 209 219 231 230 240 241 240 255 269 266 265 263 264 260 264 260 267 258
243 249 252 250 264 271 264 265 269 275 280 278 292 288 283 281 279 277 272 268 268 262 235 211 200 201 197 205 192 203 203 201 225 226 224 239 252 252 261 257 263 259 257 249 247 248 262 261 243
250 249 248 255 255 260 262 263 269 271 274 280 286 289 291 289 285 280 274 265 265 256 236 207 197 196 192 193 192 192 196 204 217 226 229 224 246 248 259 250 249 252 250 250 256 242 250 248 254
254 253 254 245 250 253 264 264 255 266 268 273 278 287 286 288 285 279 273 267 270 261 230 202 195 194 189 189 184 195 187 217 216 224 219 231 237 241 254 263 260 264 258 251 245 244 229 250 239
242 239 246 233 228 243 239 265 264 271 271 275 284 289 291 290 284 282 271 269 265 252 216 189 196 189 183 177 179 187 187 211 223 224 231 230 240 245 248 249 251 245 245 234 232 238 228 241 226
226 234 231 242 237 242 231 257 255 255 272 273 279 292 297 293 285 278 275 261 268 244 197 194 198 185 178 169 171 176 180 216 224 229 237 239 241 240 242 253 242 235 236 225 226 242 235 258 227
222 229 245 257 234 224 241 251 255 257 270 276 286 293 292 290 280 287 287 287 265 196 190 197 187 180 171 160 162 176 184 213 223 233 242 247 243 243 245 245 247 229 226 224 229 225 238 233 205
249 245 247 237 243 244 250 256 257 261 270 276 286 285 289 289 287 286 292 285 176 176 181 185 179 162 165 165 174 182 201 205 221 236 245 252 248 244 241 237 237 221 220 227 216 231 227 212 204
239 245 246 249 239 236 251 267 274 270 272 278 280 282 281 284 285 273 259 182 169 160 165 165 162 162 168 163 179 191 198 200 255 260 255 249 245 241 236 233 226 220 225 221 222 222 212 197 194
227 234 240 251 255 252 258 266 267 266 259 273 268 262 273 275 274 248 196 172 157 155 156 158 158 161 162 147 153 158 156 212 216 206 228 217 232 241 242 224 216 207 230 223 220 218 209 198 191
229 219 240 255 253 251 247 268 264 272 269 265 268 276 268 258 240 217 174 167 156 150 154 152 153 154 150 166 163 178 225 232 157 253 263 252 233 247 234 209 211 217 195 224 213 215 206 210 183
236 228 234 241 249 260 249 256 265 261 266 265 261 262 262 241 233 187 174 159 150 152 147 148 146 152 148 159 165 181 214 172 208 254 260 244 244 236 196 209 200 202 212 209 213 184 195 203 203
223 218 226 237 245 245 245 252 259 259 265 268 267 264 237 182 165 160 148 145 147 145 144 144 148 146 154 158 161 177 172 221 260 266 286 261 204 186 203 199 201 201 196 180 181 181 186 215 202
202 194 202 220 225 246 242 249 254 254 264 246 259 254 163 170 156 155 151 150 152 148 147 150 150 154 158 163 159 170 190 205 241 268 279 282 191 162 165 174 178 173 168 157 165 185 163 210 219
193 190 203 215 231 242 218 252 240 256 248 251 255 240 155 171 160 155 154 149 150 153 154 152 157 160 165 166 163 176 170 218 247 221 298 315 133 188 146 178 173 167 161 167 168 186 190 190 201
190 208 212 239 230 270 222 228 271 257 254 248 238 219 184 172 158 154 151 153 154 156 155 153 163 161 169 170 167 176 183 239 341 251 185 160 130 168 159 167 157 161 166 179 186 177 178 164 125
196 194 197 219 234 228 242 240 239 257 235 224 215 198 185 165 160 157 154 155 157 155 150 157 164 164 169 168 175 176 166 190 246 173 156 140 152 167 160 157 152 154 161 181 181 166 174 156 147
191 197 212 209 227 209 228 223 201 238 244 193 191 181 167 167 162 159 156 157 156 153 153 156 167 166 167 169 172 172 165 165 251 151 168 125 168 166 170 156 157 155 155 171 176 159 162 132 134
200 203 199 197 198 247 216 229 290 242 303 208 210 149 158 163 159 159 157 160 155 157 154 162 167 169 168 166 173 169 150 181 157 148 139 145 162 165 162 163 156 157 154 167 158 164 140 134 147